Location: Newark
(25.6108°S, 54.5803°W)
Time: 08:09:53
(UTC+00:00)

Courier 1B - Pass Details

Date: 04 November 2020
Orbit: 962 x 1209 km, 28.3° (Epoch: 02 December)

Event Time Altitude Azimuth Distance (km) Brightness Sun altitude
Rises 06:12:31 0° 263° (W) 4,090 - -31.6°
Reaches altitude 10° 06:15:44 10° 273° (W) 3,140 - -31.0°
Maximum altitude 06:22:20 30° 331° (NNW) 2,016 - -29.8°
Exits shadow 06:27:25 15° 21° (NNE) 2,728 9.6 -28.9°
Drops below altitude 10° 06:28:55 10° 28° (NNE) 3,117 10.0 -28.7°
Sets 06:32:08 0° 39° (NE) 4,056 10.8 -28.1°
